• In Latvia
  • List of Countries
  • For 7 days
  • Water Temperature
  • Satellite Maps
  • Weather Map
  • Weather Widgets
  • user-avatar
    Login

    Hourly Weather Salzburg

    Today, 19 January, Friday

    Time Temperature Precipitation Wind Pressure Humidity
    00:00 -3°C° 1.5 mm 1 mps 616 mmHg 92%
    01:00 -3°C° 0 mm 1 mps 615 mmHg 95%
    02:00 -3°C° 1.9 mm 1 mps 615 mmHg 95%
    03:00 -3°C° 1.9 mm 1 mps 615 mmHg 95%
    04:00 -3°C° 1.9 mm 1 mps 615 mmHg 95%
    05:00 -3°C° 1.6 mm 1 mps 615 mmHg 95%
    06:00 -5°C° 1.6 mm 2 mps 616 mmHg 95%
    07:00 -3°C° 0 mm 1 mps 616 mmHg 96%
    08:00 -5°C° 1.3 mm 2 mps 617 mmHg 95%
    09:00 -6°C° 1.3 mm 3 mps 617 mmHg 94%
    10:00 -6°C° 1.3 mm 3 mps 618 mmHg 94%
    11:00 -6°C° 0.5 mm 3 mps 618 mmHg 91%
    12:00 -6°C° 0.5 mm 3 mps 618 mmHg 88%
    13:00 -6°C° 0.5 mm 3 mps 618 mmHg 86%
    14:00 -7°C° 0.1 mm 3 mps 618 mmHg 87%
    15:00 -6°C° 0.1 mm 2 mps 618 mmHg 87%
    16:00 -7°C° 0.1 mm 2 mps 618 mmHg 88%
    17:00 -8°C° 0 mm 2 mps 618 mmHg 89%
    18:00 -9°C° 0 mm 2 mps 618 mmHg 89%
    19:00 -12°C° 0 mm 2 mps 618 mmHg 90%
    20:00 -12°C° 0 mm 2 mps 618 mmHg 88%
    21:00 -12°C° 0 mm 2 mps 618 mmHg 87%
    22:00 -12°C° 0 mm 2 mps 618 mmHg 86%
    23:00 -12°C° 0.3 mm 2 mps 618 mmHg 86%

    Tomorrow, 20 January, Saturday

    Time Temperature Precipitation Wind Pressure Humidity
    00:00 -10°C° 0.3 mm 2 mps 618 mmHg 86%
    01:00 -10°C° 0.3 mm 2 mps 618 mmHg 87%
    02:00 -10°C° 0.3 mm 2 mps 619 mmHg 88%
    03:00 -9°C° 0.3 mm 2 mps 619 mmHg 90%
    04:00 -9°C° 0.3 mm 2 mps 619 mmHg 92%
    05:00 -9°C° 0.2 mm 2 mps 619 mmHg 92%
    06:00 -9°C° 0.2 mm 2 mps 619 mmHg 92%
    07:00 -9°C° 0.2 mm 2 mps 619 mmHg 92%
    08:00 -9°C° 0 mm 2 mps 619 mmHg 89%
    09:00 -8°C° 0 mm 2 mps 619 mmHg 87%
    10:00 -8°C° 0 mm 2 mps 619 mmHg 85%
    11:00 -7°C° 0.1 mm 2 mps 618 mmHg 83%
    12:00 -6°C° 0.1 mm 2 mps 618 mmHg 81%
    13:00 -5°C° 0.1 mm 2 mps 618 mmHg 79%
    14:00 -6°C° 0.1 mm 2 mps 617 mmHg 82%
    15:00 -4°C° 0.1 mm 1 mps 617 mmHg 85%
    16:00 -4°C° 0.1 mm 1 mps 616 mmHg 88%
    17:00 -7°C° 0 mm 2 mps 616 mmHg 88%
    18:00 -8°C° 0 mm 2 mps 615 mmHg 89%
    19:00 -8°C° 0 mm 2 mps 614 mmHg 89%
    20:00 -8°C° 0.1 mm 2 mps 614 mmHg 89%
    21:00 -9°C° 0.1 mm 2 mps 614 mmHg 90%
    22:00 -9°C° 0.1 mm 2 mps 614 mmHg 90%
    23:00 -8°C° 0.3 mm 2 mps 614 mmHg 91%

    Day after tomorrow, 21 January, Sunday

    Time Temperature Precipitation Wind Pressure Humidity
    00:00 -8°C° 0.3 mm 2 mps 614 mmHg 91%
    01:00 -8°C° 0.3 mm 2 mps 614 mmHg 92%
    02:00 -8°C° 0.9 mm 2 mps 614 mmHg 93%
    03:00 -7°C° 0.9 mm 2 mps 615 mmHg 94%
    04:00 -7°C° 0.9 mm 2 mps 615 mmHg 95%
    05:00 -7°C° 1.3 mm 2 mps 615 mmHg 96%
    06:00 -6°C° 1.3 mm 2 mps 615 mmHg 96%
    07:00 -6°C° 1.3 mm 2 mps 616 mmHg 96%
    08:00 -6°C° 1.1 mm 2 mps 616 mmHg 96%
    09:00 -6°C° 1.1 mm 2 mps 617 mmHg 96%
    10:00 -6°C° 1.1 mm 2 mps 618 mmHg 96%
    11:00 -6°C° 1 mm 2 mps 618 mmHg 96%
    12:00 -6°C° 1 mm 2 mps 618 mmHg 95%
    13:00 -6°C° 1 mm 2 mps 618 mmHg 95%
    14:00 -6°C° 1 mm 2 mps 619 mmHg 95%
    15:00 -7°C° 1 mm 2 mps 619 mmHg 95%
    16:00 -6°C° 1 mm 1 mps 619 mmHg 95%
    17:00 -7°C° 0.8 mm 1 mps 619 mmHg 95%
    18:00 -7°C° 0.8 mm 1 mps 620 mmHg 95%
    19:00 -8°C° 0.8 mm 1 mps 620 mmHg 95%
    20:00 -8°C° 0.7 mm 1 mps 620 mmHg 95%
    21:00 -7°C° 0.7 mm 1 mps 620 mmHg 95%
    22:00 -7°C° 0.7 mm 1 mps 621 mmHg 95%
    23:00 -7°C° 1.1 mm 1 mps 621 mmHg 95%

    22 January, Monday

    Time Temperature Precipitation Wind Pressure Humidity
    00:00 -7°C° 1.1 mm 1 mps 621 mmHg 96%
    01:00 -6°C° 1.1 mm 1 mps 621 mmHg 96%
    02:00 -6°C° 1.3 mm 1 mps 621 mmHg 96%
    03:00 -6°C° 1.3 mm 1 mps 621 mmHg 96%
    04:00 -4°C° 1.3 mm 1 mps 621 mmHg 96%
    05:00 -4°C° 2.2 mm 1 mps 621 mmHg 97%
    06:00 -3°C° 2.2 mm 1 mps 621 mmHg 97%
    07:00 -3°C° 2.2 mm 1 mps 621 mmHg 97%
    08:00 -2°C° 2.1 mm 1 mps 622 mmHg 97%
    09:00 -2°C° 2.1 mm 1 mps 622 mmHg 98%
    10:00 -1°C° 2.1 mm 1 mps 622 mmHg 98%
    11:00 -1°C° 2.3 mm 1 mps 622 mmHg 98%
    12:00 0°C° 2.3 mm 1 mps 621 mmHg 98%
    13:00 0°C° 2.3 mm 1 mps 621 mmHg 98%
    14:00 -1°C° 3.8 mm 2 mps 621 mmHg 98%
    15:00 -1°C° 3.8 mm 2 mps 621 mmHg 98%
    16:00 -1°C° 3.8 mm 2 mps 622 mmHg 98%
    17:00 -1°C° 2.6 mm 2 mps 622 mmHg 98%
    18:00 -1°C° 2.6 mm 2 mps 622 mmHg 98%
    19:00 -1°C° 2.6 mm 2 mps 622 mmHg 98%
    20:00 -1°C° 0.5 mm 2 mps 622 mmHg 97%
    21:00 -1°C° 0.5 mm 2 mps 622 mmHg 96%
    22:00 -2°C° 0.5 mm 2 mps 623 mmHg 96%
    23:00 -1°C° 0.9 mm 2 mps 623 mmHg 96%

    23 January, Tuesday

    Time Temperature Precipitation Wind Pressure Humidity
    00:00 -1°C° 0.9 mm 2 mps 623 mmHg 96%
    01:00 -1°C° 0.9 mm 2 mps 623 mmHg 96%
    02:00 -1°C° 1.8 mm 2 mps 623 mmHg 96%
    03:00 -1°C° 1.8 mm 2 mps 623 mmHg 96%
    04:00 -1°C° 1.8 mm 2 mps 624 mmHg 96%
    05:00 -1°C° 2.3 mm 2 mps 624 mmHg 97%
    06:00 -1°C° 2.3 mm 2 mps 625 mmHg 97%
    07:00 -1°C° 2.3 mm 2 mps 626 mmHg 98%
    08:00 -1°C° 0.9 mm 2 mps 627 mmHg 98%
    09:00 -1°C° 0.9 mm 2 mps 627 mmHg 98%
    10:00 -1°C° 0.9 mm 2 mps 628 mmHg 98%
    11:00 -1°C° 0.1 mm 2 mps 628 mmHg 98%
    12:00 -1°C° 0.1 mm 2 mps 628 mmHg 98%
    13:00 -1°C° 0.1 mm 2 mps 629 mmHg 98%
    14:00 -1°C° 0 mm 2 mps 629 mmHg 98%
    15:00 -2°C° 0 mm 2 mps 629 mmHg 98%
    16:00 -2°C° 0 mm 2 mps 629 mmHg 97%
    17:00 -3°C° 0 mm 2 mps 630 mmHg 95%
    18:00 -4°C° 0 mm 2 mps 630 mmHg 94%
    19:00 -4°C° 0 mm 2 mps 630 mmHg 92%
    20:00 -5°C° 0 mm 2 mps 630 mmHg 89%
    21:00 -5°C° 0 mm 2 mps 630 mmHg 87%
    22:00 -5°C° 0 mm 2 mps 630 mmHg 84%
    23:00 -5°C° 0 mm 2 mps 630 mmHg 82%

    24 January, Wednesday

    Time Temperature Precipitation Wind Pressure Humidity
    00:00 -5°C° 0 mm 2 mps 630 mmHg 80%
    01:00 -5°C° 0 mm 2 mps 630 mmHg 78%
    02:00 -5°C° 0 mm 2 mps 630 mmHg 76%
    03:00 -6°C° 0 mm 2 mps 630 mmHg 75%
    04:00 -6°C° 0 mm 2 mps 630 mmHg 74%
    05:00 -4°C° 0 mm 1 mps 630 mmHg 73%
    06:00 -4°C° 0 mm 1 mps 630 mmHg 73%
    07:00 -4°C° 0 mm 1 mps 631 mmHg 73%
    08:00 -2°C° 0 mm 1 mps 631 mmHg 76%
    09:00 -1°C° 0 mm 1 mps 632 mmHg 79%
    10:00 0°C° 0 mm 1 mps 632 mmHg 82%
    11:00 +1°C° 0 mm 1 mps 632 mmHg 86%
    12:00 +2°C° 0 mm 1 mps 632 mmHg 90%
    13:00 +2°C° 0 mm 1 mps 632 mmHg 94%
    14:00 +2°C° 0 mm 1 mps 631 mmHg 93%
    15:00 +1°C° 0 mm 1 mps 631 mmHg 92%
    16:00 +1°C° 0 mm 1 mps 631 mmHg 91%
    17:00 0°C° 0 mm 1 mps 631 mmHg 86%
    18:00 -1°C° 0 mm 1 mps 630 mmHg 81%
    19:00 -4°C° 0 mm 2 mps 630 mmHg 75%
    20:00 -4°C° 0 mm 2 mps 630 mmHg 74%
    21:00 -5°C° 0 mm 2 mps 630 mmHg 72%
    22:00 -5°C° 0 mm 2 mps 630 mmHg 70%
    23:00 -5°C° 0 mm 2 mps 630 mmHg 69%
    Show more